Weather History for Gadsden, AL

Change the Weather History Date:

Saturday, December 8, 2012

  Actual Average Record
Temperature  
Mean Temperature 56 °F -  
Max Temperature 62 °F 53 °F 82 °F (1951)
Min Temperature 51 °F 33 °F 17 °F (2006)
Degree Days  
Heating Degree Days 8    
Growing Degree Days 6 (Base 50)    
Moisture  
Dew Point 54 °F    
Average Humidity 88    
Maximum Humidity 94    
Minimum Humidity 82    
Precipitation  
Precipitation 0.00 in - - ()
Sea Level Pressure  
Sea Level Pressure 30.00 in    
Wind  
Wind Speed 1 mph (SE)    
Max Wind Speed 7 mph    
Max Gust Speed -    
Visibility 8 miles    
Events      
Averages and records for this station are not official NWS values.
T = Trace of Precipitation, MM = Missing Value Source: NWS Daily Summary

Daily Weather History Graph

Daily Weather History Graph

Search for Another Location

Airport:

Trip Planner

Search our weather history database for the weather conditions in past years. The results will help you decide how hot, cold, wet, or windy it might be!

Date:

Astronomy

Dec. 08, 2012 Rise Set
Actual Time 6:37 AM CST 4:35 PM CST
Civil Twilight 6:10 AM CST 5:02 PM CST
Nautical Twilight 5:38 AM CST 5:34 PM CST
Astronomical Twilight 5:08 AM CST 6:04 PM CST
Moon 1:13 AM CST (12/8) 12:54 PM CST (12/8)
Length of Visible Light 10h 52m
Length of Day
9h 57m
Waning Crescent, 28% of the Moon is Illuminated
Dec 8
Waning Crescent
Dec 13
New
Dec 19
First Quarter
Dec 28
Full
Jan 4
Last Quarter

Hourly Weather History & Observations

Time (CST) Temp. Dew Point Humidity Pressure Visibility Wind Dir Wind Speed Gust Speed Precip Events Conditions
12:15 AM 51.8 °F 46.4 °F 82% 29.99 in 10.0 mi Calm Calm - N/A   Mostly Cloudy
12:35 AM 51.8 °F 48.2 °F 88% 29.99 in 10.0 mi Calm Calm - N/A   Mostly Cloudy
12:55 AM 51.8 °F 48.2 °F 88% 29.99 in 10.0 mi Calm Calm - N/A   Mostly Cloudy
1:15 AM 51.8 °F 46.4 °F 82% 29.99 in 10.0 mi Calm Calm - N/A   Mostly Cloudy
1:35 AM 51.8 °F 48.2 °F 88% 29.99 in 10.0 mi Calm Calm - N/A   Overcast
1:55 AM 51.8 °F 48.2 °F 88% 29.99 in 10.0 mi Calm Calm - N/A   Overcast
2:15 AM 51.8 °F 48.2 °F 88% 29.98 in 10.0 mi Calm Calm - N/A   Overcast
2:35 AM 53.6 °F 48.2 °F 82% 29.98 in 10.0 mi Calm Calm - N/A   Overcast
2:55 AM 51.8 °F 48.2 °F 88% 29.98 in 10.0 mi Calm Calm - N/A   Overcast
3:15 AM 51.8 °F 48.2 °F 88% 29.98 in 10.0 mi Calm Calm - N/A   Overcast
3:35 AM 51.8 °F 48.2 °F 88% 29.99 in 10.0 mi Calm Calm - N/A   Overcast
3:55 AM 53.6 °F 48.2 °F 82% 29.99 in 10.0 mi Calm Calm - N/A   Overcast
4:15 AM 53.6 °F 48.2 °F 82% 29.99 in 10.0 mi Calm Calm - N/A   Overcast
4:35 AM 53.6 °F 48.2 °F 82% 30.00 in 10.0 mi Calm Calm - N/A   Overcast
4:55 AM 53.6 °F 50.0 °F 88% 30.00 in 10.0 mi Calm Calm - N/A   Overcast
5:15 AM 53.6 °F 50.0 °F 88% 30.00 in 10.0 mi Calm Calm - N/A   Overcast
5:35 AM 53.6 °F 50.0 °F 88% 30.01 in 10.0 mi Calm Calm - N/A   Overcast
5:55 AM 53.6 °F 50.0 °F 88% 30.01 in 10.0 mi Calm Calm - N/A   Overcast
6:15 AM 53.6 °F 51.8 °F 94% 30.01 in 10.0 mi Calm Calm - N/A   Overcast
6:35 AM 53.6 °F 51.8 °F 94% 30.01 in 10.0 mi Calm Calm - N/A   Overcast
6:55 AM 55.4 °F 51.8 °F 88% 30.02 in 10.0 mi Calm Calm - N/A   Overcast
7:15 AM 55.4 °F 51.8 °F 88% 30.03 in 10.0 mi Calm Calm - N/A   Overcast
7:35 AM 55.4 °F 51.8 °F 88% 30.02 in 10.0 mi ESE 3.5 mph - N/A   Overcast
7:55 AM 55.4 °F 51.8 °F 88% 30.03 in 10.0 mi Calm Calm - N/A   Overcast
8:15 AM 55.4 °F 51.8 °F 88% 30.03 in 9.0 mi Calm Calm - N/A   Overcast
8:35 AM 55.4 °F 51.8 °F 88% 30.03 in 10.0 mi Calm Calm - N/A   Overcast
8:55 AM 55.4 °F 51.8 °F 88% 30.03 in 10.0 mi Calm Calm - N/A   Overcast
9:15 AM 55.4 °F 53.6 °F 94% 30.04 in 4.0 mi Calm Calm - N/A   Overcast
9:35 AM 57.2 °F 53.6 °F 88% 30.04 in 2.0 mi Calm Calm - N/A   Overcast
9:55 AM 57.2 °F 53.6 °F 88% 30.04 in 2.5 mi Calm Calm - N/A   Overcast
10:15 AM 57.2 °F 55.4 °F 94% 30.04 in 3.0 mi Calm Calm - N/A   Overcast
10:35 AM 57.2 °F 55.4 °F 94% 30.03 in 4.0 mi Calm Calm - N/A   Overcast
10:55 AM 57.2 °F 55.4 °F 94% 30.03 in 4.0 mi Calm Calm - N/A   Overcast
11:15 AM 59.0 °F 55.4 °F 88% 30.02 in 3.0 mi Calm Calm - N/A   Overcast
11:35 AM 60.8 °F 57.2 °F 88% 30.01 in 5.0 mi Calm Calm - N/A   Overcast
11:55 AM 60.8 °F 57.2 °F 88% 30.01 in 9.0 mi Calm Calm - N/A   Overcast
12:15 PM 60.8 °F 57.2 °F 88% 29.99 in 10.0 mi South 4.6 mph - N/A   Overcast
12:35 PM 62.6 °F 57.2 °F 82% 29.99 in 10.0 mi SE 3.5 mph - N/A   Overcast
12:55 PM 62.6 °F 57.2 °F 82% 29.99 in 10.0 mi SSE 5.8 mph - N/A   Overcast
1:15 PM 60.8 °F 57.2 °F 88% 29.99 in 10.0 mi SSE 3.5 mph - N/A   Overcast
1:35 PM 62.6 °F 57.2 °F 82% 29.98 in 10.0 mi SSE 4.6 mph - N/A   Overcast
1:55 PM 62.6 °F 57.2 °F 82% 29.99 in 10.0 mi Calm Calm - N/A   Overcast
2:15 PM 62.6 °F 57.2 °F 82% 29.98 in 10.0 mi Calm Calm - N/A   Overcast
2:35 PM 62.6 °F 57.2 °F 82% 29.98 in 10.0 mi East 3.5 mph - N/A   Overcast
2:55 PM 62.6 °F 57.2 °F 82% 29.98 in 10.0 mi SE 3.5 mph - N/A   Overcast
3:15 PM 62.6 °F 57.2 °F 82% 29.97 in 10.0 mi SE 5.8 mph - N/A   Overcast
3:35 PM 62.6 °F 57.2 °F 82% 29.97 in 10.0 mi SSE 6.9 mph - N/A   Overcast
3:55 PM 62.6 °F 57.2 °F 82% 29.97 in 10.0 mi South 5.8 mph - N/A   Overcast
4:15 PM 62.6 °F 57.2 °F 82% 29.97 in 10.0 mi Calm Calm - N/A   Overcast
4:35 PM 62.6 °F 57.2 °F 82% 29.98 in 10.0 mi Calm Calm - N/A   Mostly Cloudy
4:55 PM 62.6 °F 57.2 °F 82% 29.98 in 10.0 mi Calm Calm - N/A   Overcast
5:15 PM 60.8 °F 57.2 °F 88% 29.98 in 10.0 mi Calm Calm - N/A   Overcast
5:35 PM 60.8 °F 57.2 °F 88% 29.99 in 10.0 mi Calm Calm - N/A   Overcast
5:55 PM 60.8 °F 57.2 °F 88% 29.99 in 10.0 mi Calm Calm - N/A   Overcast
6:15 PM 60.8 °F 57.2 °F 88% 30.00 in 8.0 mi Calm Calm - N/A   Overcast
6:35 PM 60.8 °F 57.2 °F 88% 30.00 in 8.0 mi Calm Calm - N/A   Overcast
6:55 PM 60.8 °F 57.2 °F 88% 30.01 in 8.0 mi Calm Calm - N/A   Overcast
7:15 PM 60.8 °F 57.2 °F 88% 30.01 in 7.0 mi ESE 4.6 mph - N/A   Overcast
7:55 PM 60.8 °F 57.2 °F 88% 30.02 in 7.0 mi Calm Calm - N/A   Overcast
8:15 PM 60.8 °F 57.2 °F 88% 30.02 in 7.0 mi Calm Calm - N/A   Overcast
8:35 PM 60.8 °F 57.2 °F 88% 30.02 in 7.0 mi NNE 3.5 mph - N/A   Overcast
8:55 PM 60.8 °F 57.2 °F 88% 30.02 in 7.0 mi Calm Calm - N/A   Overcast
9:15 PM 60.8 °F 57.2 °F 88% 30.02 in 6.0 mi Calm Calm - N/A   Overcast
9:35 PM 59.0 °F 57.2 °F 94% 30.02 in 5.0 mi Calm Calm - N/A   Overcast
9:55 PM 59.0 °F 57.2 °F 94% 30.02 in 5.0 mi Calm Calm - N/A   Mostly Cloudy
10:15 PM 57.2 °F 55.4 °F 94% 30.02 in 0.8 mi Calm Calm - N/A   Mostly Cloudy
10:35 PM 57.2 °F 55.4 °F 94% 30.02 in 0.5 mi Calm Calm - N/A   Overcast
10:55 PM 59.0 °F 57.2 °F 94% 30.02 in 2.5 mi Calm Calm - N/A   Overcast
11:15 PM 59.0 °F 57.2 °F 94% 30.02 in 2.5 mi Calm Calm - N/A   Overcast
11:35 PM 59.0 °F 57.2 °F 94% 30.02 in 3.0 mi Calm Calm - N/A   Overcast
11:55 PM 57.2 °F 55.4 °F 94% 30.01 in 0.5 mi Calm Calm - N/A   Overcast